Regional Weather Roundup
Issued by NWS

Home | Current Version | Previous Version | Graphics & Text | Print | Product List | Glossary On
Versions: 1 2 3 4 5 6 7 8 9 10 11 12 13 14 15 16 17 18 19 20 21 22 23 24 25 26 27 28 29 30 31 32 33 34 35 36 37 38 39 40 41 42 43 44 45 46 47 48 49 50
000
ASUS43 KDTX 282001
RWRMI
MICHIGAN HOURLY REGIONAL WEATHER ROUNDUP
NATIONAL WEATHER SERVICE DETROIT/PONTIAC MI
400 PM EDT TUE JUL 28 2015

NOTE: "FAIR" INDICATES FEW OR NO CLOUDS BELOW 12,000 FEET WITH NO
SIGNIFICANT WEATHER AND/OR OBSTRUCTION TO VISIBILITY.

MIZ047>049-052>055-059>063-066>070-074>076-081>083-282100-
SOUTHEAST LOWER MICHIGAN

CITY           SKY/WX    TMP DP  RH WIND       PRES   REMARKS
ADRIAN         SUNNY     88  61  40 VRB3      30.01F
ALMA           PTSUNNY   87  62  43 SE5       30.01F
ANN ARBOR      SUNNY     89  59  36 SE6       30.01F
CARO           MOSUNNY   89  62  41 SE5       30.01S
DETROIT CITY   SUNNY     89  63  41 SE8       30.01F HX  90
DETROIT        PTSUNNY   89  61  38 S8        30.01F
FLINT          MOSUNNY   90  60  36 SW5       30.01F
GROSSE ILE     SUNNY     82  72  69 S8        30.01S
HILLSDALE      MOSUNNY   86  62  44 E3        30.03F
HOWELL         MOSUNNY   89  57  33 SE5       30.02S

CITY           SKY/WX    TMP DP  RH WIND       PRES   REMARKS
JACKSON        MOSUNNY   88  59  37 S7        30.01F
LAMBERTVILLE   SUNNY     87  61  40 E5        30.02S
LANSING        PTSUNNY   87  59  38 S7        30.02S
LAPEER         FAIR      89  57  34 CALM      30.02F
MASON          PTSUNNY   85  61  44 S6        30.01F
MONROE         SUNNY     87  61  41 SE3       30.01S
MT. CLEMENS    PTSUNNY   87  63  44 SE7       30.00F
PONTIAC        PTSUNNY   89  60  37 S7        30.01F
PORT HOPE        N/A     79  72  79 E5        30.01F
PORT HURON     MOSUNNY   88  59  37 CALM      30.01F
TRI CITIES     PTSUNNY   90  62  39 S6        30.02R HX  90
MIDLAND        FAIR      88  57  34 CALM      30.00S
TROY           MOSUNNY   92  55  28 E9        30.03S HX  90
SAGINAW HB     PTSUNNY   90  61  37 SW5       30.01R
$$
MIZ043>046-050>051-056>058-064>065-071>073-077>080-282100-
SOUTHWEST LOWER MICHIGAN

CITY           SKY/WX    TMP DP  RH WIND       PRES   REMARKS
BATTLE CREEK   PTSUNNY   88  64  44 S8        30.01F
BENTON HARBOR  PTSUNNY   88  67  49 S8        29.98S HX  91
BIG RAPIDS     CLOUDY    85  56  36 S6        30.00S
COLDWATER      PTSUNNY   85  62  44 S3        30.01F
FREMONT        FAIR      90  51  26 S10       29.98F
HOLLAND        MOSUNNY   90  61  37 S6        29.99F HX  90
GRAND RAPIDS   PTSUNNY   88  59  37 SE8       30.00F
IONIA          FAIR      88  60  38 S8        30.00F
KALAMAZOO      PTSUNNY   89  63  41 VRB6      30.00F HX  90
LUDINGTON      PTSUNNY   83  60  45 S6        29.97F
MARSHALL       PTSUNNY   87  64  45 S3        30.01F
MOUNT PLEASANT CLOUDY    88  58  35 SE6       30.00F
MUSKEGON       PTSUNNY   88  59  37 SW7       29.98F
SOUTH HAVEN    MOSUNNY   88  64  44 S5        29.98S
$$
MIZ016>042-282100-
NORTHERN LOWER MICHIGAN

CITY           SKY/WX    TMP DP  RH WIND       PRES   REMARKS
ALPENA         CLOUDY    89  62  40 SE10      30.00S
BEAVER ISLAND  CLOUDY    78  60  53 SW5       29.99F
BELLAIRE       CLOUDY    85  61  44 N6        29.98S
CADILLAC       CLOUDY    88  58  36 SE9       30.02S
CHARLEVOIX     CLOUDY    81  63  54 W9        30.02F
FRANKFORT      CLOUDY    82  61  49 W8        29.99S
GAYLORD        CLOUDY    89  53  29 S7        30.01F
GRAYLING       CLOUDY    88  61  39 S7        30.02S
HARBOR SPRINGS PTSUNNY   84  63  49 SW5       29.98S
HOUGHTON LAKE  PTSUNNY   88  60  38 S6        30.02F
MANISTEE       CLOUDY    82  61  47 W7        29.98F
OSCODA         PTSUNNY   89  60  37 SE9       30.00S
PELLSTON       PTSUNNY   90  61  37 NW14G20   29.99R HX  90
ROGERS CITY    CLOUDY    87  66  49 E12       30.00S
TRAVERSE CITY  CLOUDY    92  62  36 S7        29.95F HX  92
$$
MIZ007>008-015-282100-
EASTERN UPPER MICHIGAN

CITY           SKY/WX    TMP DP  RH WIND       PRES   REMARKS
KINROSS        CLOUDY    90  55  31 W9        29.99S
MACKINAC ISLAN CLOUDY    85  60  43 CALM      29.99S
MUNISING         N/A     86  65  49 S8        29.94S
$$
MIZ004>006-011>014-085-282100-
CENTRAL UPPER MICHIGAN

CITY           SKY/WX    TMP DP  RH WIND       PRES   REMARKS
MANISTIQUE     CLOUDY    77  63  61 SE6       29.98S
ESCANABA       CLOUDY    82  66  57 SE13      29.93F
MENOMINEE      CLOUDY    82  64  54 S13       29.92R
$$
MIZ001>003-009>011-084-282100-
WESTERN UPPER MICHIGAN

CITY           SKY/WX    TMP DP  RH WIND       PRES   REMARKS
IRON MOUNTAIN  CLOUDY    82  62  50 S12       29.93S
HOUGHTON       CLOUDY    81  62  52 S14G25    29.87F
COPPER HARBOR    N/A     82  62  50 SW8G18    29.86F
IRONWOOD       PTSUNNY   81  70  69 S8G16     29.81S
$$

ABBREVIATIONS USED IN REMARKS
   TC - TEMPERATURE IN CELSIUS
  WCI - WIND CHILL INDEX
   HX - HEAT INDEX
  VSB - VISIBILITY




USA.gov is the U.S. government's official web portal to all federal, state and local government web resources and services.